Home   Weather   Kennebunk   Past weeks

Flag for USA Past Weather in Kennebunk, Maine, USA — Yesterday and Last 2 Weeks

62 °F

Light rain. Low clouds.

Feels Like: 62 °F
Forecast: 44 / 63 °F
Wind: 5 mph from Northeast

Location: Sanford Municipal

Current Time: Oct 22, 2016 at 3:04:08 AM

Latest Report: Oct 22, 2016 at 1:56 AM

Visibility: 10 mi

Pressure: 29.40 "Hg

Humidity: 96%

Dew Point: 61 °F

Location of KennebunkLocation

Past Weather in Kennebunk — Graph


Kennebunk Temperature Yesterday

Maximum temperature yesterday: 64 °F (at 3:56 PM)
Minimum temperature yesterday: 54 °F (at 1:56 AM)
Average temperature yesterday: 59 °F

High & Low Weather Summary for the Past Weeks

High75 °F (Oct 17, 2:56 PM)100% (Oct 7, 9:56 PM)30.53 "Hg (Oct 7, 9:56 PM)
Low24 °F (Oct 15, 5:56 AM)27% (Oct 11, 1:56 PM)29.40 "Hg (Oct 22, 1:56 AM)
Average51 °F81%30.15 "Hg
* Reported Oct 7 1:56 AM — Oct 22 1:56 AM, Kennebunk, Weather by CustomWeather, © 2016

Note: Actual official high and low records may vary slightly from our data, if they occured in-between our weather recording intervals... More about our weather records


Kennebunk Weather History for the Previous 24 Hours

Scroll right to see more
Time TempWeatherWind HumidityBarometerVisibility
1:56 AM
Sat, Oct 22
62 °FLight rain. Low clouds.5 mph96%29.40 "Hg10 mi
12:56 AM62 °FRain. Low clouds.7 mph96%29.44 "Hg8 mi
11:59 PM
Fri, Oct 21
61 °FRain. Mostly cloudy.9 mph100%29.44 "Hg7 mi
10:56 PM61 °FStrong thunderstorms. Fog.12 mph100%29.50 "Hg4 mi
9:56 PM62 °FHeavy rain. Fog.7 mph96%29.52 "Hg3 mi
8:56 PM62 °FHeavy rain. Fog.9 mph96%29.55 "Hg4 mi
7:56 PM63 °FLight rain. Fog.5 mph97%29.61 "Hg5 mi
6:56 PM62 °FFog.5 mph100%29.66 "Hg4 mi
5:56 PM63 °FFog.3 mph100%29.69 "Hg5 mi
4:56 PM64 °FLight rain. Fog.5 mph97%29.72 "Hg4 mi
3:56 PM64 °FFog.7 mph97%29.74 "Hg6 mi
2:56 PM63 °FLight rain. Fog.5 mph97%29.77 "Hg5 mi
1:56 PM62 °FFog.5 mph100%29.80 "Hg4 mi
12:56 PM61 °FFog.No wind100%29.83 "Hg0 mi
11:56 AM60 °FFog.3 mph100%29.88 "Hg0 mi
10:56 AM59 °FFog.5 mph100%29.89 "Hg0 mi
9:56 AM57 °FFog.3 mph100%29.92 "Hg0 mi
8:56 AM56 °FFog.3 mph100%29.94 "Hg1 mi
7:53 AM55 °FFog.3 mph100%29.91 "Hg1 mi
6:56 AM56 °FLow clouds.3 mph100%29.96 "Hg10 mi
5:56 AM56 °FLight rain. Fog.5 mph100%29.97 "Hg1 mi
4:56 AM56 °FLight rain. Fog.6 mph100%29.98 "Hg2 mi
3:56 AM56 °FLight rain. Fog.3 mph97%30.00 "Hg3 mi
Weather by CustomWeather, © 2016

See weather overviewHow to use our weather pages